CW3442 Weather Reports


Display with metric or nautical units.
time (UTC)temp
F
wind
direction
speed
MPH
gust
MPH
rain 1hr
in
rain 24hr
in
rain mn
in
humidity
%
barometer
mb
20260510160444 59 259 0.0 0.0 0.00 0.00 0.00 49 787.5
20260510150431 57 269 0.0 0.0 0.00 0.00 0.00 53 787.3
20260510140430 55 86 0.0 0.0 0.00 0.00 0.00 61 787.3
20260510130430 55 292 0.0 0.0 0.00 0.00 0.00 63 787.1
20260510120423 53 197 0.0 0.0 0.00 0.00 0.00 75 786.9
20260510110427 51 202 0.0 0.0 0.00 0.00 0.00 85 786.7
20260510100442 50 209 0.0 0.0 0.00 0.00 0.00 92 786.6
20260510090436 51 220 0.0 0.0 0.00 0.00 0.00 92 786.5
20260510080431 51 209 0.0 0.0 0.00 0.00 0.00 92 786.3
20260510070432 51 257 0.0 0.0 0.00 0.00 0.00 92 786.3
20260510060452 50 120 0.0 0.0 0.00 0.00 0.00 91 786.2
20260510050421 51 111 1.0 0.0 0.00 0.00 0.00 86 786.4
20260510040422 52 119 0.0 0.0 0.00 0.00 0.00 83 786.2
20260510030424 51 116 0.0 0.0 0.00 0.00 0.00 82 786.3
20260510020423 52 113 0.0 0.0 0.00 0.00 0.00 80 786.5
20260510010423 53 131 0.0 0.0 0.00 0.00 0.00 76 786.5
20260510000434 54 14 1.0 0.0 0.00 0.00 0.00 72 786.5
20260509230429 57 164 1.0 0.0 0.00 0.00 0.00 63 786.5
20260509220430 60 109 0.0 0.0 0.00 0.00 0.00 54 786.6
20260509210429 63 192 0.0 0.0 0.00 0.00 0.00 37 786.6
20260509200423 65 96 0.0 0.0 0.00 0.00 0.00 32 786.7
20260509190436 66 234 1.0 0.0 0.00 0.00 0.00 25 786.7
20260509180439 65 183 2.0 0.0 0.00 0.00 0.00 25 786.9
20260509170435 64 116 1.0 0.0 0.00 0.00 0.00 28 787.1